Tracking 30995 objects as of 7-Jul-2025
HD Live streaming from Space Station
objects crossing your sky now

FENGYUN 1C DEB

Track FENGYUN 1C DEB now!
10-day predictions


NORAD ID: 32095
Int'l Code: 1999-025CQM
Perigee: 790.4 km
Apogee: 903.0 km
Inclination: 98.6 °
Period: 101.7 minutes
Semi major axis: 7217 km
RCS: 0.0116 m2 (small)
Launch date: May 10, 1999
Source: People's Republic of China (PRC)
Launch site: Taiyaun Space Center, China (TSC)

Note: This is SATELLITE DEBRIS
Your satellite tracking list
Your tracking list is empty




NASA's NSSDC Master Catalog

Two Line Element Set (TLE):
1 32095U 99025CQM 25183.78433717  .00000354  00000-0  19614-3 0  9999
2 32095  98.6493 204.1515 0078028 198.3501 161.4855 14.15810307926366
Source of the keplerian elements: AFSPC